Latham, NY

7:55 PM EST on December 10, 2016 (GMT -0500)
Albany International

Weather History for KALB - December, 2013

Change the Weather History Date:

Wednesday, December 25, 2013

  Actual Average Record
Temperature  
Mean Temperature 16 °F 25 °F  
Max Temperature 23 °F 33 °F 66 °F (1889)
Min Temperature 9 °F 18 °F -22 °F (1969)
Degree Days  
Heating Degree Days 49 40  
Month to date heating degree days 925 887  
Since 1 July heating degree days 2295 2291  
Cooling Degree Days 0 0  
Month to date cooling degree days 0 0  
Year to date cooling degree days 763 598  
Moisture  
Dew Point 2 °F    
Average Humidity 56    
Maximum Humidity 69    
Minimum Humidity 43    
Precipitation  
Precipitation T in 0.09 in 3.30 in (1945)
Month to date precipitation 2.47 2.42  
Year to date precipitation 42.92 38.84  
Snow  
Snow T in 0.50 in 19.20 in (2002)
Month to date snowfall 18.8 10.5  
Since 1 July snowfall 20.9 13.6  
Snow Depth 0.00 in    
Sea Level Pressure  
Sea Level Pressure 30.49 in    
Wind  
Wind Speed 6 mph (NNW)    
Max Wind Speed 23 mph    
Max Gust Speed 28 mph    
Visibility 10 miles    
Events      
T = Trace of Precipitation, MM = Missing Value Source: NWS Daily Summary

Daily Weather History Graph

Daily Weather History Graph

Search for Another Location

Airport or City:

Trip Planner

Search our weather history database for the weather conditions in past years. The results will help you decide how hot, cold, wet, or windy it might be!

Date:

Astronomy

Dec. 25, 2013 Rise Set
Actual Time 7:24 AM EST 4:26 PM EST
Civil Twilight 6:51 AM EST 4:59 PM EST
Nautical Twilight 6:16 AM EST 5:34 PM EST
Astronomical Twilight 5:41 AM EST 6:09 PM EST
Moon No Moon Rise 11:36 AM EST (12/25)
Length of Visible Light 10h 07m
Length of Day
9h 02m
Waning Gibbous, 49% of the Moon is Illuminated
Dec 25
Waning Gibbous
Jan 1
New
Jan 7
First Quarter
Jan 15
Full
Jan 24
Last Quarter

Hourly Weather History & Observations

Time (EST) Temp. Windchill Dew Point Humidity Pressure Visibility Wind Dir Wind Speed Gust Speed Precip Events Conditions
12:51 AM 16.0 °F 1.7 °F 3.9 °F 59% 30.38 in 10.0 mi WNW 13.8 mph 27.6 mph 0.00 in   Mostly Cloudy
1:51 AM 14.0 °F -2.5 °F 1.9 °F 59% 30.41 in 10.0 mi NW 17.3 mph 24.2 mph N/A   Partly Cloudy
2:51 AM 12.9 °F -2.2 °F 1.9 °F 62% 30.43 in 10.0 mi NW 13.8 mph 20.7 mph N/A   Partly Cloudy
3:51 AM 12.0 °F -4.0 °F 1.0 °F 61% 30.45 in 10.0 mi WNW 15.0 mph 21.9 mph N/A   Partly Cloudy
4:51 AM 12.0 °F -3.4 °F -0.0 °F 59% 30.47 in 10.0 mi NW 13.8 mph 19.6 mph N/A   Partly Cloudy
5:51 AM 10.9 °F -2.6 °F -0.9 °F 59% 30.51 in 10.0 mi NW 10.4 mph - N/A   Partly Cloudy
6:51 AM 9.0 °F 0.6 °F -0.9 °F 64% 30.53 in 10.0 mi WNW 4.6 mph - N/A   Partly Cloudy
7:51 AM 9.0 °F 2.4 °F -0.0 °F 67% 30.54 in 10.0 mi NNW 3.5 mph - N/A   Clear
8:51 AM 10.9 °F -0.8 °F -0.9 °F 59% 30.56 in 10.0 mi WNW 8.1 mph - N/A   Clear
9:51 AM 14.0 °F 2.9 °F -0.9 °F 52% 30.57 in 10.0 mi NNW 8.1 mph - N/A   Clear
10:51 AM 15.1 °F 7.7 °F -0.0 °F 51% 30.57 in 10.0 mi NNW 4.6 mph - N/A   Partly Cloudy
11:51 AM 17.1 °F 6.6 °F -0.0 °F 47% 30.55 in 10.0 mi NNW 8.1 mph - N/A   Scattered Clouds
12:51 PM 18.0 °F 8.7 °F 1.0 °F 48% 30.53 in 10.0 mi North 6.9 mph - N/A   Mostly Cloudy
1:51 PM 18.0 °F 12.7 °F -0.0 °F 45% 30.51 in 10.0 mi North 3.5 mph - N/A   Mostly Cloudy
2:51 PM 19.0 °F 13.9 °F -0.0 °F 43% 30.52 in 10.0 mi ENE 3.5 mph - N/A   Overcast
3:51 PM 19.0 °F 13.9 °F 1.0 °F 46% 30.52 in 10.0 mi NE 3.5 mph - N/A   Overcast
4:51 PM 18.0 °F 9.8 °F 1.9 °F 50% 30.51 in 10.0 mi NNE 5.8 mph - N/A   Mostly Cloudy
5:51 PM 17.1 °F - 1.9 °F 52% 30.50 in 10.0 mi Calm Calm - N/A   Mostly Cloudy
6:51 PM 17.1 °F - 3.9 °F 56% 30.51 in 10.0 mi Calm Calm - N/A   Mostly Cloudy
7:51 PM 17.1 °F - 6.1 °F 62% 30.49 in 10.0 mi Calm Calm - N/A   Mostly Cloudy
8:51 PM 18.0 °F - 3.9 °F 54% 30.46 in 10.0 mi Calm Calm - N/A   Mostly Cloudy
9:51 PM 18.0 °F - 7.0 °F 62% 30.45 in 10.0 mi Calm Calm - N/A   Overcast
10:51 PM 19.9 °F - 9.0 °F 62% 30.44 in 10.0 mi Calm Calm - N/A   Overcast
11:51 PM 23.0 °F 12.4 °F 6.1 °F 48% 30.41 in 10.0 mi South 10.4 mph - N/A   Overcast